Regional Weather Roundup
Issued by NWS Nashville, TN

Home | Current Version | Previous Version | Text Only | Print | Product List | Glossary On
Versions: 1 2 3 4 5 6 7 8 9 10 11 12 13 14 15 16 17 18 19 20 21 22 23 24 25 26 27 28 29 30 31 32 33 34 35 36 37 38 39 40 41 42 43 44 45 46 47 48 49 50
000
ASUS44 KOHX 260715
RWROHX
MIDDLE TENNESSEE HOURLY WEATHER ROUNDUP
NATIONAL WEATHER SERVICE NASHVILLE TN
100 AM CST MON JAN 26 2015

NOTE: "FAIR" INDICATES FEW OR NO CLOUDS BELOW 12,000 FEET WITH
NO SIGNIFICANT WEATHER AND/OR OBSTRUCTIONS TO VISIBILITY.

* THESE REPORTS ARE NOT UNDER NWS QUALITY CONTROL AND MAY NOT
  REPORT WEATHER SUCH AS PRECIPITATION AND FOG.


TNZ005>011-023>034-057-059-062>066-078-080-260800
...NORTHERN MIDDLE TENNESSEE...

CITY           SKY/WX    TMP DP  RH WIND       PRES   REMARKS
CLARKSVILLE    CLOUDY    37  35  92 NW20G28   29.83R FOG     WCI  27
CROSSVILLE     LGT RAIN  38  35  89 W9        29.67S WCI  31
GALLATIN       CLOUDY    41  41 100 NW13      29.75R
DICKSON        MOCLDY    37  37 100 NW18      29.79R WCI  27
LEBANON        CLOUDY    41  39  92 NW14      29.73R
LIVINGSTON     CLOUDY    39  38  97 NW9       29.68R WCI  33
NASHVILLE      CLOUDY    43  37  81 NW17G28   29.78R
WEST NASHVILLE CLOUDY    39  39 100 NW13      29.78R WCI  32
PORTLAND       CLOUDY    37  37 100 NW13      29.73R WCI  29
SMYRNA         CLOUDY    43  40  89 NW13      29.78R
SPARTA         CLOUDY    41  39  93 NW5       29.70R
$$
TNZ056-058-060-061-075>077-079-093>097-260800
...SOUTHERN MIDDLE TENNESSEE...

CITY           SKY/WX    TMP DP  RH WIND       PRES   REMARKS
COLUMBIA       CLOUDY   N/A N/A N/A NW7       29.76R
LEWISBURG      CLOUDY    43  41  93 W9        29.76R
MCMINNVILLE    CLOUDY    43  43 100 W6        29.72R
MURFREESBORO   CLOUDY    43  41  93 NW8       29.75R
SHELBYVILLE    CLOUDY    43  43 100 W9        29.76R
TULLAHOMA      CLOUDY    41  39  93 W10       29.74S
WINCHESTER     CLOUDY    43  41  93 W7        29.75R
$$


...KEY TO REMARKS...
VSB - VISIBILITY IN MILES
WCI - WIND CHILL INDEX
HX  - HEAT INDEX




USA.gov is the U.S. government's official web portal to all federal, state and local government web resources and services.